[[{"header":{"parameterUnit":"m.s-1","parameterCategory":1,"la1":30.2991,"la2":30.254,"lo1":-89.0895,"lo2":-89.0444,"dy":0.0017,"dx":0.0017,"nx":28,"ny":28,"refTime":"2024-05-17T03:00:00:Z","depth":0,"parameterNumber":2,"parameterNumberName":"U-component_of_WINDS"},"data":[0,0,0,0,0,0,0,0,0,0,0,0,0,0,0,0,0,0,0,0,0,0,0,0,0,0,0,0,0,0,0,0,0,0,0,0,0,0,0,0,0,0,0,0,0,0,0,0,0,0,0,0,0,0,0,0,0,0,-0.4034,-0.4039,0,-0.4492,-0.4497,-0.4502,-0.4498,-0.4492,-0.4486,-0.448,-0.4975,-0.4993,-0.5012,0,0,0,0,0,0,0,0,0,0,0,0,0,-0.3183,-0.3198,-0.4033,-0.4039,-0.4045,-0.4491,-0.4497,-0.4504,-0.4499,-0.4492,-0.4484,-0.4477,-0.4969,-0.4991,-0.5014,0,0,0,0,0,0,0,0,0,0,0,0,0,-0.3588,-0.3203,-0.4032,-0.4096,-0.4106,-0.449,-0.4497,-0.4505,-0.4501,-0.4492,-0.4483,-0.4474,-0.4961,-0.4989,-0.5017,-0.5375,0,0,-0.5103,-0.5116,0,0,0,0,0,0,0,0,-0.3565,-0.362,-0.4081,-0.4092,-0.4104,-0.4428,-0.4379,-0.4798,-0.4503,-0.4352,-0.448,-0.4469,-0.4802,-0.4843,-0.495,-0.5399,-0.542,-0.5106,-0.5123,-0.5135,-0.5143,0,0,0,0,0,0,0,-0.3537,-0.36,-0.4215,-0.4088,-0.4102,-0.4111,-0.4158,-0.4458,-0.4624,-0.4364,-0.4365,-0.4418,-0.4807,-0.4923,-0.4961,-0.5427,-0.5105,-0.513,-0.5148,-0.5159,-0.6203,-0.6213,0,0,0,0,0,0,-0.3492,-0.3576,-0.4201,-0.4229,-0.3806,-0.4133,-0.4186,-0.4334,-0.462,-0.4655,-0.4425,-0.4416,-0.4879,-0.4928,-0.4979,-0.5423,-0.5135,-0.5162,-0.5178,-0.6192,-0.6205,-0.6217,0,0,0,0,0,0,-0.3474,-0.3548,-0.4182,-0.3903,-0.3984,-0.4157,-0.4323,-0.4348,-0.4463,-0.4666,-0.4698,-0.4511,-0.4873,-0.4939,-0.5277,-0.544,-0.5174,-0.52,-0.6179,-0.6196,-0.6211,-0.631,0,0,0,0,0,0,-0.3449,-0.3541,-0.3672,-0.3906,-0.3999,-0.4464,-0.4333,-0.4363,-0.4509,-0.4501,-0.4755,-0.4789,-0.4871,-0.5235,-0.5305,-0.5474,-0.5222,-0.6166,-0.6187,-0.6206,-0.6293,-0.6327,-0.6357,0,0,0,0,0,-0.3419,-0.3686,-0.3679,-0.3754,-0.4165,-0.4473,-0.4528,-0.461,-0.4521,-0.466,-0.4792,-0.4781,-0.5409,-0.5269,-0.5349,-0.5528,-0.6156,-0.6181,-0.6204,-0.6279,-0.6321,-0.6356,0,0,0,0,0,0,-0.3475,-0.3717,-0.3712,-0.406,-0.4245,-0.4472,-0.4648,-0.4651,-0.4872,-0.4856,-0.4957,-0.5015,-0.5354,-0.5475,-0.5314,-0.5895,-0.5773,-0.5814,-0.5803,-0.5844,-0.5876,-0.5842,-0.5246,0,0,0,0,0,-0.3525,-0.3747,-0.3951,-0.4239,-0.4331,-0.4474,-0.4611,-0.4658,-0.4858,-0.4938,-0.5094,-0.5296,-0.554,-0.5698,-0.5933,-0.631,-0.637,-0.6474,-0.6505,-0.6531,-0.6567,-0.6783,-0.6833,-0.6296,-0.6296,-0.6295,0,0,-0.3637,-0.3797,-0.3932,-0.4255,-0.4403,-0.464,-0.454,-0.4793,-0.4973,-0.498,-0.5307,-0.5429,-0.5662,-0.6022,-0.6189,-0.6134,-0.6728,-0.6561,-0.658,-0.6603,-0.6813,-0.6864,-0.6909,-0.6312,-0.6309,-0.6307,0,0,-0.3961,-0.41,-0.4358,-0.4509,-0.4733,-0.4826,-0.4889,-0.5116,-0.5195,-0.5524,-0.5536,-0.5756,-0.6171,-0.6337,-0.6477,-0.6868,-0.687,-0.6943,-0.7112,-0.7321,-0.7363,-0.7401,-0.7548,-0.7598,-0.6977,-0.6978,-0.6978,0,-0.4073,-0.442,-0.4493,-0.4747,-0.4893,-0.4902,-0.5171,-0.5316,-0.561,-0.5715,-0.5646,-0.6171,-0.6328,-0.6731,-0.6826,-0.6936,-0.7019,-0.6915,-0.7349,-0.7389,-0.7426,-0.7566,-0.762,-0.6985,-0.6984,-0.6984,-0.6983,0,-0.4551,-0.4792,-0.4976,-0.525,-0.5417,-0.5677,-0.5799,-0.5961,-0.5995,-0.6098,-0.6439,-0.6627,-0.6903,-0.7001,-0.704,-0.7413,-0.7372,-0.7326,-0.7207,-0.7483,-0.7618,-0.7672,-0.6996,-0.6994,-0.6991,-0.6989,0,0,-0.4922,-0.5234,-0.5301,-0.5428,-0.5678,-0.5872,-0.6137,-0.6399,-0.6539,-0.6743,-0.6974,-0.7327,-0.7286,-0.7445,-0.7503,-0.7686,-0.7992,-0.7619,-0.7626,-0.7686,-0.8424,-0.846,-0.852,-0.7993,-0.8004,-0.8012,-0.8406,0,-0.5276,-0.5736,-0.5812,-0.622,-0.645,-0.6465,-0.6698,-0.6882,-0.6988,-0.7206,-0.7326,-0.7576,-0.75,-0.7597,-0.7778,-0.7916,-0.8143,-0.7888,-0.8219,-0.8229,-0.8163,-0.8589,-0.8628,-0.899,-0.8459,-0.8468,-0.8474,0,-0.5749,-0.5958,-0.6387,-0.6611,-0.671,-0.6916,-0.7167,-0.7371,-0.7585,-0.7649,-0.7827,-0.7864,-0.8151,-0.8015,-0.8417,-0.8242,-0.8383,-0.8472,-0.8488,-0.8526,-0.8371,-0.8644,-0.9107,-0.9164,-0.8556,-0.855,-0.8544,0,-0.5984,-0.6374,-0.6682,-0.679,-0.7057,-0.7203,-0.7323,-0.7526,-0.7681,-0.7903,-0.8006,-0.8261,-0.8403,-0.8604,-0.8713,-0.8603,-0.911,-0.8982,-0.918,-0.9178,-0.9289,-0.9281,-0.9786,-0.9371,-0.9371,-0.937,-0.9368,0,-0.6374,-0.6637,-0.6791,-0.6981,-0.7281,-0.737,-0.7667,-0.7785,-0.7967,-0.8188,-0.8219,-0.8428,-0.8557,-0.8788,-0.8876,-0.9199,-0.9262,-0.933,-0.9351,-0.933,-0.9322,-0.9426,-0.9405,-0.9384,-0.9381,-0.9378,-0.9376,0,-0.6687,-0.6799,-0.7137,-0.7361,-0.7424,-0.7636,-0.7833,-0.8024,-0.8128,-0.8409,-0.848,-0.8649,-0.8923,-0.905,-0.939,-0.945,-0.982,-0.9822,-0.9745,-0.9754,-0.9946,-0.9928,-1.054,-1.0628,-1.015,-1.0155,-1.0158,0,-0.6929,-0.7132,-0.7377,-0.7523,-0.7644,-0.788,-0.8037,-0.8136,-0.83,-0.8561,-0.8723,-0.8995,-0.9219,-0.9658,-0.9817,-1.008,-1.0092,-1.0288,-1.0132,-1.0106,-1.0102,-1.009,-1.0114,-1.0317,-1.0322,-1.0326,-1.0329,0,-0.7351,-0.7397,-0.7617,-0.7859,-0.8044,-0.8242,-0.8436,-0.8557,-0.8688,-0.8873,-0.9148,-0.9321,-0.9667,-0.9942,-1.0215,-1.035,-1.0367,-1.0376,-1.0437,-1.0419,-1.0368,-1.0404,-0.9827,-1.0363,-1.0359,-1.0357,-1.0355,-1.0354,-0.7641,-0.7824,-0.8024,-0.8271,-0.8427,-0.8608,-0.8799,-0.8927,-0.9156,-0.9439,-0.9486,-0.9782,-0.9999,-1.0367,-1.0511,-1.0751,-1.0706,-1.0793,-1.0816,-1.0837,-1.085,-1.0325,-1.0801,-1.08,-1.08,-1.0799,-1.0799,0,-0.8069,-0.8198,-0.8424,-0.8692,-0.8889,-0.8876,-0.9093,-0.9261,-0.9518,-0.9714,-0.9932,-1.0254,-1.0521,-1.0701,-1.0974,-1.1132,-1.1147,-1.1201,-1.1193,-1.1226,-1.0872,-1.0794,-1.1185,-1.1185,-1.1185,-1.1185,-1.1185,-1.1184,-0.8314,-0.8624,-0.8695,-0.9086,-0.9217,-0.9501,-0.9626,-0.9798,-0.9955,-1.031,-1.0529,-1.0641,-1.0835,-1.1122,-1.137,-1.1417,-1.152,-1.1576,-1.1623,-1.129,-1.125,-1.1211,-1.1139,-1.1596,-1.1596,-1.1957,-1.1961,-1.1963]},{"header":{"parameterUnit":"m.s-1","parameterCategory":1,"la1":30.2991,"la2":30.254,"lo1":-89.0895,"lo2":-89.0444,"dy":0.0017,"dx":0.0017,"nx":28,"ny":28,"refTime":"2024-05-17T03:00:00:Z","depth":0,"parameterNumber":3,"parameterNumberName":"V-component_of_WINDS"},"data":[0,0,0,0,0,0,0,0,0,0,0,0,0,0,0,0,0,0,0,0,0,0,0,0,0,0,0,0,0,0,0,0,0,0,0,0,0,0,0,0,0,0,0,0,0,0,0,0,0,0,0,0,0,0,0,0,0,0,-2.0969,-2.0965,0,-2.0632,-2.0628,-2.0624,-2.0521,-2.0523,-2.0525,-2.0526,-2.0172,-2.0161,-2.015,0,0,0,0,0,0,0,0,0,0,0,0,0,-2.1512,-2.1503,-2.0969,-2.0965,-2.0961,-2.0632,-2.0628,-2.0623,-2.0521,-2.0523,-2.0525,-2.0527,-2.0175,-2.0162,-2.0149,0,0,0,0,0,0,0,0,0,0,0,0,0,-2.1236,-2.15,-2.097,-2.087,-2.0858,-2.0633,-2.0627,-2.0622,-2.052,-2.0523,-2.0526,-2.0528,-2.018,-2.0164,-2.0147,-1.9994,0,0,-2.0097,-2.009,0,0,0,0,0,0,0,0,-2.1252,-2.1216,-2.0889,-2.0877,-2.0863,-2.0621,-2.0689,-2.0411,-2.052,-2.0648,-2.0526,-2.0529,-2.0319,-2.0291,-2.0222,-1.9978,-1.9963,-2.0095,-2.0085,-2.0078,-2.0074,0,0,0,0,0,0,0,-2.1271,-2.123,-2.0835,-2.0884,-2.0868,-2.0838,-2.0802,-2.0636,-2.0473,-2.0637,-2.0629,-2.0591,-2.0312,-2.0238,-2.0213,-1.9957,-2.0096,-2.0081,-2.0071,-2.0064,-1.9565,-1.9562,0,0,0,0,0,0,-2.1308,-2.1247,-2.0846,-2.0825,-2.1068,-2.0827,-2.0786,-2.0696,-2.0475,-2.0443,-2.0589,-2.0588,-2.0265,-2.0232,-2.02,-2.0002,-2.0078,-2.0063,-2.0053,-1.9569,-1.9565,-1.9561,0,0,0,0,0,0,-2.1321,-2.1274,-2.0859,-2.1033,-2.0978,-2.0815,-2.0714,-2.0688,-2.0614,-2.0438,-2.0408,-2.0545,-2.0266,-2.0223,-2.0046,-1.9989,-2.0055,-2.004,-1.9573,-1.9567,-1.9563,-1.961,0,0,0,0,0,0,-2.1337,-2.1279,-2.1222,-2.1033,-2.097,-2.0715,-2.0711,-2.068,-2.0587,-2.0582,-2.0388,-2.0359,-2.0264,-2.0071,-2.0029,-1.9967,-2.0028,-1.9577,-1.957,-1.9564,-1.9613,-1.9607,-1.9602,0,0,0,0,0,-2.1356,-2.1248,-2.122,-2.1172,-2.0896,-2.0712,-2.0675,-2.0572,-2.0583,-2.0522,-2.0409,-2.0365,-2.0003,-2.0054,-2.0006,-1.9938,-1.958,-1.9572,-1.9565,-1.9615,-1.9608,-1.9603,0,0,0,0,0,0,-2.1432,-2.1221,-2.1188,-2.1016,-2.0883,-2.0695,-2.0616,-2.0568,-2.0427,-2.0428,-2.0302,-2.0259,-2.009,-1.9996,-2.0057,-1.9776,-1.9789,-1.9772,-1.9843,-1.9836,-1.9831,-1.9856,-2.0014,0,0,0,0,0,-2.143,-2.1301,-2.1122,-2.0987,-2.0922,-2.0781,-2.0697,-2.0628,-2.0484,-2.0427,-2.03,-2.0159,-2.0013,-1.9919,-1.9776,-1.9599,-1.9553,-1.9528,-1.9523,-1.952,-1.9506,-1.9401,-1.9387,-1.9536,-1.9536,-1.9536,0,0,-2.1421,-2.129,-2.1216,-2.0999,-2.0888,-2.0754,-2.0734,-2.0594,-2.0491,-2.0404,-2.0229,-2.0131,-1.9965,-1.9787,-1.9702,-1.9703,-1.9454,-1.951,-1.9509,-1.9496,-1.9391,-1.9377,-1.9365,-1.9531,-1.9532,-1.9533,0,0,-2.1337,-2.1228,-2.1101,-2.099,-2.0822,-2.0728,-2.0698,-2.0516,-2.0448,-2.0271,-2.0202,-2.0076,-1.9829,-1.9712,-1.9621,-1.9489,-1.9441,-1.9445,-1.9418,-1.9317,-1.9305,-1.9294,-1.9243,-1.9227,-1.9432,-1.9432,-1.9432,0,-2.1348,-2.1146,-2.1041,-2.0903,-2.0807,-2.0725,-2.0592,-2.0489,-2.0282,-2.0216,-2.0222,-1.9907,-1.9789,-1.958,-1.9548,-1.9478,-1.9436,-1.9466,-1.9316,-1.9304,-1.9292,-1.9242,-1.9224,-1.9433,-1.9433,-1.9433,-1.9433,0,-2.1165,-2.1025,-2.0943,-2.0747,-2.0641,-2.0508,-2.0378,-2.0284,-2.0224,-2.0128,-1.9946,-1.9802,-1.9626,-1.9571,-1.9511,-1.9352,-1.9358,-1.9342,-1.9352,-1.9281,-1.9231,-1.9212,-1.9435,-1.9435,-1.9435,-1.9434,0,0,-2.112,-2.0866,-2.0837,-2.0745,-2.0553,-2.0441,-2.0301,-2.0131,-2.0051,-1.991,-1.9786,-1.9578,-1.956,-1.9456,-1.9382,-1.9294,-1.9194,-1.9287,-1.9281,-1.9272,-1.9005,-1.9017,-1.8997,-1.9162,-1.9158,-1.9155,-1.9018,0,-2.1009,-2.0759,-2.0659,-2.0454,-2.0321,-2.0239,-2.0116,-1.9982,-1.9888,-1.9758,-1.9653,-1.9506,-1.9496,-1.9432,-1.9342,-1.9226,-1.9138,-1.9234,-1.9042,-1.9036,-1.9084,-1.8972,-1.8984,-1.8862,-1.8998,-1.8995,-1.8992,0,-2.0847,-2.0706,-2.0489,-2.0309,-2.025,-2.0142,-1.9975,-1.9854,-1.9699,-1.9636,-1.9519,-1.9449,-1.9294,-1.9316,-1.9099,-1.9167,-1.9082,-1.9012,-1.9005,-1.8981,-1.9009,-1.8942,-1.882,-1.8801,-1.8962,-1.8964,-1.8967,0,-2.0833,-2.0588,-2.0425,-2.035,-2.0137,-2.0062,-1.9969,-1.9817,-1.972,-1.9573,-1.9508,-1.9345,-1.9255,-1.9129,-1.9015,-1.9042,-1.8807,-1.882,-1.8747,-1.8749,-1.8699,-1.8704,-1.856,-1.865,-1.865,-1.865,-1.8651,0,-2.0718,-2.0587,-2.0415,-2.0315,-2.0164,-2.0048,-1.9901,-1.9802,-1.9667,-1.9543,-1.9461,-1.9346,-1.9203,-1.9068,-1.8978,-1.881,-1.877,-1.8712,-1.8689,-1.8718,-1.8725,-1.8659,-1.8663,-1.8645,-1.8646,-1.8647,-1.8648,0,-2.0676,-2.0556,-2.0373,-2.0186,-2.0135,-2.0032,-1.987,-1.9767,-1.9669,-1.9512,-1.9469,-1.9313,-1.915,-1.9024,-1.8812,-1.875,-1.8571,-1.8548,-1.8624,-1.8612,-1.8544,-1.8551,-1.8351,-1.8317,-1.8433,-1.8432,-1.8431,0,-2.061,-2.0507,-2.0309,-2.0221,-2.0129,-1.9989,-1.9889,-1.9769,-1.9668,-1.9481,-1.94,-1.9231,-1.909,-1.8832,-1.8698,-1.8533,-1.8504,-1.8445,-1.8478,-1.8509,-1.8499,-1.8505,-1.8493,-1.844,-1.8439,-1.8439,-1.8439,0,-2.0504,-2.0449,-2.031,-2.0148,-2.0032,-1.9899,-1.9764,-1.9695,-1.955,-1.944,-1.9273,-1.9163,-1.8946,-1.8777,-1.8599,-1.8499,-1.8443,-1.8429,-1.8403,-1.843,-1.8477,-1.8448,-1.8609,-1.8434,-1.8434,-1.8435,-1.8435,-1.8435,-2.0445,-2.0349,-2.0193,-2.0039,-1.9925,-1.98,-1.9693,-1.9581,-1.9441,-1.9255,-1.9192,-1.9019,-1.8862,-1.8617,-1.8515,-1.8375,-1.8373,-1.8336,-1.8326,-1.8318,-1.8319,-1.8502,-1.8343,-1.8343,-1.8343,-1.8343,-1.8343,0,-2.0333,-2.0228,-2.0088,-1.9901,-1.9779,-1.9739,-1.9586,-1.9486,-1.9335,-1.9194,-1.9057,-1.8862,-1.8698,-1.8551,-1.8379,-1.8295,-1.8264,-1.8253,-1.8257,-1.8234,-1.8333,-1.8371,-1.8281,-1.8281,-1.8281,-1.8281,-1.8281,-1.8281,-2.026,-2.0093,-2.0019,-1.9793,-1.9687,-1.9519,-1.9434,-1.9316,-1.9203,-1.8991,-1.8854,-1.876,-1.8615,-1.8431,-1.8277,-1.8238,-1.8177,-1.8172,-1.8126,-1.822,-1.8228,-1.8235,-1.8271,-1.8161,-1.816,-1.8038,-1.8037,-1.8036]}]]